Location: Croissy-Beaubourg
(48.8283°N, 2.6696°E)
Time: 16:14:41
(UTC+00:00)

H-2A R/B - Pass Details

Date: 16 October 2021
Orbit: 527 x 651 km, 98.3° (Epoch: 28 November)

Event Time Altitude Azimuth Distance (km) Brightness Sun altitude
Rises 18:51:18 0° 182° (S) 2,934 6.0 -19.5°
Reaches altitude 10° 18:53:38 10° 189° (S) 2,017 5.2 -19.8°
Maximum altitude 18:57:48 42° 261° (W) 900 3.8 -20.5°
Drops below altitude 10° 19:01:53 10° 332° (NNW) 1,971 5.6 -21.2°
Sets 19:04:08 0° 340° (NNW) 2,859 6.4 -21.5°
